{"data":{"norad_id":61956,"epoch":"2026-05-25T00:11:39.230016Z","epoch_age_seconds":71438,"freshness":"FRESH","line1":"1 61956U 24209T   26145.00809294  .00016411  00000+0  56492-3 0  9995","line2":"2 61956  53.1596 147.7617 0001174  92.3498 267.7637 15.30203216 86587","mean_motion":15.30203216,"eccentricity":0.0001174,"inclination_deg":53.1596,"raan_deg":147.7617,"arg_perigee_deg":92.3498,"mean_anomaly_deg":267.7637,"bstar":0.00056492,"rev_number":8658,"period_min":94.105147926967,"perigee_km":474.4008846342,"apogee_km":476.01004944546,"semimajor_km":6853.3424670398,"source":"CELESTRAK","updated_at":"2026-05-25T13:38:19.489862Z"}}